{"data":{"norad_id":50192,"epoch":"2026-09-20T00:47:19.548096Z","epoch_age_seconds":85585,"freshness":"FRESH","line1":"1 50192U 21125AN  26263.03286514  .00001459  00000+0  55691-4 0  9994","line2":"2 50192  53.1607  76.0465 0001022  90.7254 269.3865 15.33551121266214","mean_motion":15.33551121,"eccentricity":0.0001022,"inclination_deg":53.1607,"raan_deg":76.0465,"arg_perigee_deg":90.7254,"mean_anomaly_deg":269.3865,"bstar":5.5691e-5,"rev_number":26621,"period_min":93.899706392637,"perigee_km":464.52805940546,"apogee_km":465.92684309929,"semimajor_km":6843.3644512524,"source":"CELESTRAK","updated_at":"2026-09-20T09:00:39.418796Z"}}